This is the latest recevied weather packets stored in our database for station/object KE8CZD. If no packets are shown the sender has not sent any weather packets the latest 10 day(s).
| Time | Temp. | Humidity | Pressure | Rain* | Wind** | Luminosity | Snow |
|---|---|---|---|---|---|---|---|
| 1777472869 | 10.56° C | 99% | 1009.3 hPa | 0 mm | - | - | - |
| 1777472508 | 10.56° C | 98% | 1009.3 hPa | 0 mm | - | - | - |
| 1777472148 | 10.56° C | 98% | 1009.1 hPa | 0 mm | - | - | - |
| 1777471788 | 10.56° C | 99% | 1009.2 hPa | 0 mm | - | - | - |
| 1777471428 | 10.56° C | 99% | 1009.3 hPa | 0 mm | - | - | - |
| 1777471068 | 10.56° C | 98% | 1009.5 hPa | 0 mm | - | - | - |
| 1777470708 | 10° C | 98% | 1009.7 hPa | 0 mm | - | - | - |
| 1777470349 | 9.44° C | 98% | 1009.7 hPa | 0 mm | - | - | - |
| 1777469989 | 10° C | 98% | 1009.7 hPa | 0 mm | - | - | - |
| 1777469628 | 9.44° C | 98% | 1009.7 hPa | 0.25 mm | - | - | - |
| 1777469268 | 9.44° C | 99% | 1009.6 hPa | 0.25 mm | - | - | - |
| 1777468908 | 9.44° C | 99% | 1009.7 hPa | 0.25 mm | - | - | - |
| 1777468548 | 9.44° C | 99% | 1009.7 hPa | 0.25 mm | - | - | - |
| 1777468189 | 8.89° C | 99% | 1009.8 hPa | 0.25 mm | - | - | - |
| 1777467828 | 8.89° C | 98% | 1009.9 hPa | 0.25 mm | - | - | - |
| 1777467468 | 8.89° C | 98% | 1010.1 hPa | 0.51 mm | - | - | - |
| 1777467108 | 8.89° C | 98% | 1010.1 hPa | 0.51 mm | - | - | - |
| 1777466748 | 8.33° C | 99% | 1010.3 hPa | 0.76 mm | - | - | - |
| 1777466388 | 7.78° C | 98% | 1010.6 hPa | 1.02 mm | - | - | - |
| 1777466028 | 7.78° C | 97% | 1010.6 hPa | 1.78 mm | - | - | - |
| 1777465669 | 7.78° C | 98% | 1010.6 hPa | 1.78 mm | - | - | - |
| 1777465309 | 7.78° C | 97% | 1010.5 hPa | 2.03 mm | - | - | - |
| 1777464948 | 7.78° C | 97% | 1010.6 hPa | 2.03 mm | - | - | - |
| 1777464588 | 7.78° C | 95% | 1010.6 hPa | 2.29 mm | - | - | - |
| 1777464228 | 7.78° C | 95% | 1010.5 hPa | 2.03 mm | - | - | - |
* Rain latest hour (hover to see other rain measurements)
** Current wind speed in m/s (hover to see current wind gust speed)